Voltar ao catálogo

HULIANWANG DIGUI-48

AtivoComunicaçõesLEO
NORAD 65051·PAYLOAD·🇨🇳 China

Lançado Jul 30, 2025 de Wenchang Space Launch Site

Loading…

Próximas Passagens (próximas 24 horas)

TLE

AtualizadoSource: Space-Track

Época: Sep 14, 2026, 20:43 UTC

1 65051U 25162J   26257.86347233 -.00000083  00000-0  87596-4 0  9992
2 65051  50.0044 303.8350 0000654 261.0978  98.9820 13.29326212 55290

Acompanhe HULIANWANG DIGUI-48 em tempo real com AllMySat

Download on the App Store